Regional Weather Roundup
Issued by NWS

Home | Current Version | Previous Version | Text Only | Print | Product List | Glossary Off
Versions: 1 2 3 4 5 6 7 8 9 10 11 12 13 14 15 16 17 18 19 20 21 22 23 24 25 26 27 28 29 30 31 32 33 34 35 36 37 38 39 40 41 42 43 44 45 46 47 48 49 50

000
ASUS43 KMPX 240501
RWRMN
WEATHER ROUNDUP FOR MINNESOTA
NATIONAL WEATHER SERVICE TWIN CITIES/CHANHASSEN MN
1200 AM CDT WED AUG 24 2016


NOTE: "FAIR" INDICATES FEW OR NO CLOUDS BELOW 12,000 FEET WITH NO
SIGNIFICANT WEATHER AND/OR OBSTRUCTIONS TO VISIBILITY. N/A MEANS
CURRENT SKY AND/OR WEATHER CONDITIONS ARE NOT AVAILABLE.

MNZ060>063-068>070-240600-
   Twin Cities Metro

CITY           SKY/WX    TMP DP  RH WIND       PRES   REMARKS
TWIN CITIES    LGT RAIN  68  64  87 SE12      29.85F FOG
ST PAUL        TSTM      67  66  97 SE5       29.86S FOG
CRYSTAL        LGT RAIN  67  64  90 SE9       29.83F
BLAINE         RAIN      70  68  94 S7        29.86R
LAKEVILLE      LGT RAIN  64  64 100 W5        29.87R
EDEN PRAIRIE   LGT RAIN  69  65  86 E10       29.83F
LAKEVILLE      LGT RAIN  64  64 100 W5        29.87R
SOUTH ST PAUL  CLOUDY    68  67  97 E3        29.86S
LAKE ELMO      TSTM      68  66  94 W7        29.90R
$$
MNZ001>005-007-008-013>017-022>024-027-028-240600-
   Northwest Minnesota

CITY           SKY/WX    TMP DP  RH WIND       PRES   REMARKS
BEMIDJI        PTCLDY    71  68  92 S6        29.80S
HALLOCK        CLOUDY    72  61  68 W12       29.74R
ROSEAU         CLOUDY    73  68  83 W10       29.72R
WARROAD        MOCLDY    75  70  83 SW14G21   29.71R
THIEF RVR FALL CLOUDY    72  67  84 W10       29.78R
CROOKSTON      CLOUDY    72  61  68 NW10      29.78R
FOSSTON        MOCLDY    68  63  83 S9        29.80R
DETROIT LAKES  PTCLDY    70  66  88 S7        29.82S
MOORHEAD       CLOUDY    72  66  83 S5        29.79S
PARK RAPIDS    CLEAR     71  67  87 S9        29.82F
MAHNOMEN       MOCLDY    68  65  90 S8        29.79S
$$
MNZ006-009>011-018-025>026-240600-
   North Central Minnesota

CITY           SKY/WX    TMP DP  RH WIND       PRES   REMARKS
BAUDETTE       CLOUDY    74  66  76 S12       29.72S
FLAG ISLAND    CLOUDY    75  66  73 SW6       29.67R HAZE
INTL FALLS     CLEAR     73  68  84 VRB6      29.76F
WASKISH        PTCLDY    73  70  88 S5        29.77S
BIG FORK       PTCLDY    72  66  83 S10       29.81F
LONGVILLE      CLEAR     70  64  83 S5        29.82F
GRAND RAPIDS   CLOUDY    70  65  84 S9        29.85S
CRANE LAKE     CLEAR     72  68  88 S6        29.81F
ORR            CLEAR     72  66  83 S8        29.79F
COOK           CLOUDY    72  64  78 S8G18     29.83S
WALKER         CLOUDY    71  67  87 S6        29.81F
$$
MNZ012-019>021-037-240600-
   Northeast Minnesota

CITY           SKY/WX    TMP DP  RH WIND       PRES   REMARKS
DULUTH         CLOUDY    70  65  84 S9        29.86F
ELY            CLOUDY    72  64  78 S12       29.85S
HIBBING        CLOUDY    68  63  84 S6        29.84S
EVELETH        PTCLDY    70  64  80 S6        29.87R
DULUTH HARBOR  MOCLDY    73  66  78 S3        29.84F
TWO HARBORS    CLOUDY    72  66  83 S3        29.85F
SILVER BAY     CLOUDY    66  64  94 CALM      29.86S
GRAND MARAIS     N/A     71  66  84 W3        29.86F
G MARAIS ARPRT CLOUDY    66  61  82 S8        29.92F
$$
MNZ029>031-032-039>041-046>048-054>057-064-240600-
   West Central Minnesota

CITY           SKY/WX    TMP DP  RH WIND       PRES   REMARKS
FERGUS FALLS   PTCLDY    70  66  88 SE9       29.81F
WHEATON        PTCLDY    70  68  94 SE6       29.81S
MORRIS         CLOUDY    66  66 100 S7        29.82R
ALEXANDRIA     CLEAR     67  64  90 S7        29.85R
ELBOW LAKE     FAIR      65  65  97 E7        29.83R
WADENA         MOCLDY    66  64  94 CALM      29.83R
GLENWOOD       PTCLDY    66  64  94 S7        29.85R
APPLETON       CLOUDY    68  64  88 S3        29.82S
BENSON         CLOUDY    66  63  88 S5        29.83R
ORTONVILLE     CLOUDY    68  64  88 S5        29.82R
MADISON        CLEAR     70  66  88 S5        29.83R
WILLMAR        CLOUDY    66  66 100 SE6       29.85S
$$
MNZ033>034-036-042>043-049>051-058-059-240600-
   Central Minnesota

CITY           SKY/WX    TMP DP  RH WIND       PRES   REMARKS
ST CLOUD       CLOUDY    68  66  93 S7        29.84S
SAUK CENTRE    MOCLDY    67  66  97 S8        29.84S
PAYNESVILLE    DRIZZLE   67  67 100 S5        29.85S
AITKIN         CLOUDY    70  61  73 SE6       29.82F
PINE RIVER     CLEAR     70  64  83 SE5       29.86F
BRAINERD       CLOUDY    66  63  90 S6        29.84R
STAPLES        MOCLDY    68  64  88 S3        29.83S
LONG PRAIRIE   MOCLDY    66  64  94 SE5       29.84S
LITTLE FALLS   CLOUDY    66  61  82 S6        29.85R
LITCHFIELD     RAIN      68  66  94 CALM      29.85F
BUFFALO        CLOUDY    67  64  90 CALM      29.85F
MAPLE LAKE     DRIZZLE   67  66  96 CALM      29.86S
HUTCHINSON     RAIN      67  67  98 SE6       29.85S
$$
MNZ037-044-045-052-053-240600-
   East Central Minnesota

CITY           SKY/WX    TMP DP  RH WIND       PRES   REMARKS
PRINCETON      CLOUDY    70  66  88 S3        29.85S
MORA           CLOUDY    70  63  78 S9G16     29.86F
CAMBRIDGE      CLOUDY    72  63  73 S5        29.84F
RUSH CITY      LGT RAIN  69  65  86 S7        29.86S
MOOSE LAKE     CLOUDY    68  63  83 S3        29.84F
HINCKLEY       CLOUDY    70  64  83 CALM      29.85F
CLOQUET        PTCLDY    68  63  83 CALM      29.86F
MCGREGOR       CLOUDY    68  63  83 S6        29.85F
$$
MNZ071>073-080-081-089-090-097-098-240600-
   Southwest Minnesota

CITY           SKY/WX    TMP DP  RH WIND       PRES   REMARKS
MONTEVIDEO     CLOUDY    68  66  94 CALM      29.84F
GRANITE FALLS  CLOUDY    68  67  96 CALM      29.83F
CANBY          CLOUDY    69  66  92 CALM      29.84S
MARSHALL       CLOUDY    67  66  97 SE3       29.82F
REDWOOD FALLS  CLOUDY    67  65  93 SE5       29.82F
OLIVIA         CLOUDY    68  64  88 SE5       29.82F
PIPESTONE      CLOUDY    72  70  94 CALM      29.83F
WINDOM         CLOUDY    70  66  88 CALM      29.82F
WORTHINGTON    MOCLDY    72  70  93 SW8       29.83S
JACKSON        CLOUDY    70  68  94 CALM      29.83F FOG
TRACY          CLOUDY    67  66  97 CALM      29.83S
SLAYTON        CLOUDY    66  66 100 SE3       29.84S
$$
MNZ065>067-074>077-082>085-091>093-240600-
   South Central Minnesota

CITY           SKY/WX    TMP DP  RH WIND       PRES   REMARKS
MANKATO        CLOUDY    66  63  88 S5        29.84F
NEW ULM          N/A     66  66 100 E3        29.83F
ST JAMES       CLOUDY    63  61  94 E5        29.82F
FAIRMONT         N/A    N/A N/A N/A MISG        N/A
GLENCOE        HVY RAIN  67  68 100 CALM      29.84S
FARIBAULT      CLOUDY    66  66 100 S3        29.86R
OWATONNA       CLOUDY    66  64  94 SE13G18   29.84F
WASECA         CLOUDY    64  63  94 SE17G23   29.83F
ALBERT LEA     CLOUDY    66  66 100 S10G17    29.86F
$$
MNZ078>079-086>088-094>096-240600-
   Southeast Minnesota

CITY           SKY/WX    TMP DP  RH WIND       PRES   REMARKS
ROCHESTER      LGT RAIN  67  66  97 SE13      29.89R
RED WING       CLOUDY    70  66  88 SE13      29.83S
STANTON        CLOUDY    70  64  83 N7        29.83R
DODGE CENTER   CLOUDY    66  64  94 SE18      29.86F
WINONA         TSTM      70  68  94 SE6       29.91F
AUSTIN         TSTM      66  64  94 S5        29.86F
PRESTON        TSTM      64  63  95 S15       29.94R VSB 1
$$
ABBREVIATIONS USED IN REMARKS
   TC - TEMPERATURES IN CELSIUS
  WCI - WIND CHILL INDEX
   HX - HEAT INDEX
  VSB - VISIBILITY
$$



USA.gov is the U.S. government's official web portal to all federal, state and local government web resources and services.